This demonstration page uses our WeatherBlox Daily Observations layout. Learn more.

Hourly Observations for May 16, 2018

Temp ( °F °C ) Dew Point ( °F °C ) Humidity (%) Winds ( mph kmh ) Pressure ( in mb ) Visibility ( mi km ) Precip ( " mm )
12:54 am 00:54 Clear 56 13.3 53 11.7 90 90 N 5 7 29.99 1016 10 16.0934 0 0
1:54 am 01:54 Clear 58 14.4 55 12.8 90 90 N 6 9 29.97 1015 9 14.48406 0 0
2:54 am 02:54 Clear 57 13.9 54 12.2 90 90 NNW 3 6 29.98 1015 9 14.48406 0 0
3:54 am 03:54 Clear 54 12.2 52 11.1 93 93 N 5 7 29.98 1015 8 12.87472 0 0
4:54 am 04:54 Clear with Mist and Fog 54 12.2 53 11.7 97 97 NNW 3 6 29.99 1016 6 9.65604 0 0
5:54 am 05:54 Clear 55 12.8 53 11.7 93 93 Calm 29.99 1016 8 12.87472 0 0
6:54 am 06:54 Sunny with Mist and Fog 54 12.2 52 11.1 93 93 N 6 9 29.99 1016 5 8.0467 0 0
7:54 am 07:54 Sunny 60 15.6 55 12.8 84 84 Calm 30 1016 7 11.26538 0 0
8:54 am 08:54 Sunny 67 19.4 57 13.9 71 71 Calm 30 1016 8 12.87472 0 0
9:54 am 09:54 Sunny 73 22.8 59 15 62 62 Calm 30 1016 10 16.0934 0 0
10:54 am 10:54 Sunny 76 24.4 59 15 56 56 VRB 3 6 30 1016 10 16.0934 0 0
11:54 am 11:54 Mostly Sunny 79 26.1 58 14.4 49 49 VRB 3 6 29.99 1016 10 16.0934 0 0
12:54 pm 12:54 Sunny 79 26.1 58 14.4 49 49 ESE 7 11 29.98 1015 10 16.0934 0 0
1:54 pm 13:54 Mostly Sunny 79 26.1 56 13.3 45 45 ESE 5 7 29.96 1014 10 16.0934 0 0
2:54 pm 14:54 Partly Cloudy 83 28.3 55 12.8 38 38 VRB 3 6 29.94 1014 10 16.0934 0 0
3:54 pm 15:54 Sunny 84 28.9 54 12.2 36 36 Calm 29.92 1013 10 16.0934 0 0
4:54 pm 16:54 Sunny 84 28.9 52 11.1 33 33 Calm 29.91 1013 10 16.0934 0 0
5:54 pm 17:54 Sunny 85 29.4 51 10.6 31 31 ENE 3 6 29.91 1013 10 16.0934 0 0
6:54 pm 18:54 Sunny 82 27.8 53 11.7 37 37 ENE 8 13 29.91 1013 10 16.0934 0 0
7:54 pm 19:54 Sunny 79 26.1 51 10.6 38 38 ENE 9 15 29.91 1013 10 16.0934 0 0
8:54 pm 20:54 Clear 75 23.9 58 14.4 55 55 ESE 9 15 29.93 1013 10 16.0934 0 0
9:54 pm 21:54 Clear 71 21.7 59 15 66 66 SE 6 9 29.95 1014 10 16.0934 0 0
10:54 pm 22:54 Clear 71 21.7 59 15 66 66 SE 7 11 29.95 1014 10 16.0934 0 0
11:54 pm 23:54 Clear 69 20.6 60 15.6 73 73 SE 8 13 29.95 1014 10 16.0934 0 0

Powered by AerisWeather